Weather History for Sturgeon Bay, WI

Change the Weather History Date:

Monday, September 10, 2012

  Actual Average Record
Temperature  
Mean Temperature 62 °F -  
Max Temperature 73 °F 72 °F 96 °F (1931)
Min Temperature 50 °F 52 °F 33 °F (1935)
Degree Days  
Heating Degree Days 4    
Growing Degree Days 12 (Base 50)    
Moisture  
Dew Point 51 °F    
Average Humidity 70    
Maximum Humidity 94    
Minimum Humidity 38    
Precipitation  
Precipitation 0.00 in - - ()
Sea Level Pressure  
Sea Level Pressure 30.11 in    
Wind  
Wind Speed 5 mph (SSW)    
Max Wind Speed 17 mph    
Max Gust Speed 24 mph    
Visibility 10 miles    
Events      
Averages and records for this station are not official NWS values.
T = Trace of Precipitation, MM = Missing Value Source: NWS Daily Summary

Daily Weather History Graph

Daily Weather History Graph

Search for Another Location

Airport:

Trip Planner

Search our weather history database for the weather conditions in past years. The results will help you decide how hot, cold, wet, or windy it might be!

Date:

Astronomy

Sep. 10, 2012 Rise Set
Actual Time 6:23 AM CDT 7:08 PM CDT
Civil Twilight 5:53 AM CDT 7:38 PM CDT
Nautical Twilight 5:18 AM CDT 8:13 PM CDT
Astronomical Twilight 4:41 AM CDT 8:50 PM CDT
Moon 12:32 AM CDT (9/10) 3:48 PM CDT (9/10)
Length of Visible Light 13h 45m
Length of Day
12h 45m
Waning Crescent, 30% of the Moon is Illuminated
Sep 10
Waning Crescent
Sep 15
New
Sep 22
First Quarter
Sep 29
Full
Oct 8
Last Quarter

Hourly Weather History & Observations

Time (CDT) Temp. Dew Point Humidity Pressure Visibility Wind Dir Wind Speed Gust Speed Precip Events Conditions
4:15 AM 51.8 °F 48.2 °F 88% 30.14 in 8.0 mi Calm Calm - N/A   Clear
4:35 AM 51.8 °F 50.0 °F 94% 30.14 in 10.0 mi Calm Calm - N/A   Clear
4:55 AM 51.8 °F 48.2 °F 88% 30.15 in 10.0 mi Calm Calm - N/A   Clear
5:15 AM 51.8 °F 48.2 °F 88% 30.15 in 9.0 mi Calm Calm - N/A   Clear
5:35 AM 51.8 °F 48.2 °F 88% 30.15 in 9.0 mi Calm Calm - N/A   Clear
5:55 AM 51.8 °F 48.2 °F 88% 30.16 in 5.0 mi Calm Calm - N/A   Clear
6:15 AM 50.0 °F 48.2 °F 94% 30.16 in 8.0 mi Calm Calm - N/A   Clear
6:35 AM 50.0 °F 46.4 °F 87% 30.17 in 10.0 mi South 3.5 mph - N/A   Clear
6:55 AM 50.0 °F 46.4 °F 87% 30.17 in 10.0 mi South 3.5 mph - N/A   Clear
7:15 AM 51.8 °F 48.2 °F 88% 30.18 in 10.0 mi Calm Calm - N/A   Clear
7:35 AM 53.6 °F 51.8 °F 94% 30.18 in 10.0 mi Calm Calm - N/A   Clear
7:55 AM 57.2 °F 53.6 °F 88% 30.17 in 10.0 mi Calm Calm - N/A   Clear
8:15 AM 59.0 °F 55.4 °F 88% 30.17 in 10.0 mi SSW 3.5 mph - N/A   Clear
8:35 AM 60.8 °F 53.6 °F 77% 30.16 in 10.0 mi SW 6.9 mph - N/A   Clear
8:55 AM 62.6 °F 51.8 °F 68% 30.17 in 10.0 mi WSW 9.2 mph - N/A   Clear
9:15 AM 62.6 °F 51.8 °F 68% 30.17 in 10.0 mi SW 6.9 mph - N/A   Clear
9:35 AM 64.4 °F 50.0 °F 59% 30.17 in 10.0 mi SW 8.1 mph - N/A   Clear
9:55 AM 66.2 °F 50.0 °F 56% 30.17 in 10.0 mi SW 6.9 mph - N/A   Clear
10:35 AM 68.0 °F 48.2 °F 49% 30.17 in 10.0 mi WSW 10.4 mph - N/A   Clear
10:55 AM 69.8 °F 48.2 °F 46% 30.16 in 10.0 mi SW 9.2 mph - N/A   Clear
11:15 AM 69.8 °F 48.2 °F 46% 30.16 in 10.0 mi WSW 10.4 mph 18.4 mph N/A   Clear
11:35 AM 69.8 °F 48.2 °F 46% 30.16 in 10.0 mi SW 15.0 mph 18.4 mph N/A   Clear
11:55 AM 71.6 °F 48.2 °F 43% 30.16 in 10.0 mi WSW 12.7 mph - N/A   Clear
2:55 PM 73.4 °F 48.2 °F 41% 30.09 in 10.0 mi SSW 13.8 mph - N/A   Clear
3:15 PM 73.4 °F 48.2 °F 41% 30.08 in 10.0 mi South 11.5 mph - N/A   Clear
3:35 PM 73.4 °F 46.4 °F 38% 30.08 in 10.0 mi SSW 16.1 mph 24.2 mph N/A   Clear
3:55 PM 73.4 °F 53.6 °F 50% 30.07 in 10.0 mi South 17.3 mph 23.0 mph N/A   Clear
5:15 PM 71.6 °F 55.4 °F 57% 30.06 in 10.0 mi South 16.1 mph 20.7 mph N/A   Clear
5:55 PM 69.8 °F 53.6 °F 56% 30.04 in 10.0 mi South 16.1 mph 24.2 mph N/A   Clear
6:15 PM 68.0 °F 53.6 °F 60% 30.04 in 10.0 mi South 15.0 mph 20.7 mph N/A   Clear
6:35 PM 68.0 °F 55.4 °F 64% 30.03 in 10.0 mi South 13.8 mph 19.6 mph N/A   Clear
8:35 PM 64.4 °F 55.4 °F 73% 30.03 in 10.0 mi South 12.7 mph 17.3 mph N/A   Clear
8:55 PM 64.4 °F 55.4 °F 73% 30.03 in 10.0 mi South 12.7 mph 21.9 mph N/A   Clear
9:15 PM 64.4 °F 55.4 °F 73% 30.03 in 10.0 mi South 11.5 mph 17.3 mph N/A   Clear
9:35 PM 64.4 °F 55.4 °F 73% 30.03 in 10.0 mi South 10.4 mph - N/A   Clear
9:55 PM 64.4 °F 55.4 °F 73% 30.03 in 10.0 mi South 11.5 mph - N/A   Clear
10:15 PM 62.6 °F 53.6 °F 72% 30.03 in 10.0 mi South 9.2 mph - N/A   Clear
10:35 PM 62.6 °F 53.6 °F 72% 30.03 in 10.0 mi South 9.2 mph - N/A   Clear
11:35 PM 60.8 °F 53.6 °F 77% 30.04 in 10.0 mi South 6.9 mph - N/A   Clear
11:55 PM 60.8 °F 51.8 °F 72% 30.04 in 10.0 mi South 10.4 mph - N/A   Clear